Weather History for KVCB - October, 2011

Change the Weather History Date:

Tuesday, October 4, 2011

  Actual Average Record
Temperature  
Mean Temperature 60 °F -  
Max Temperature 64 °F 86 °F 101 °F (1980)
Min Temperature 55 °F 50 °F 39 °F (1973)
Degree Days  
Heating Degree Days 6    
Growing Degree Days 10 (Base 50)    
Moisture  
Dew Point 55 °F    
Average Humidity 91    
Maximum Humidity 100    
Minimum Humidity 63    
Precipitation  
Precipitation 0.09 in - - ()
Sea Level Pressure  
Sea Level Pressure 29.89 in    
Wind  
Wind Speed 4 mph (SW)    
Max Wind Speed 13 mph    
Max Gust Speed 21 mph    
Visibility 7 miles    
Events Rain    
Averages and records for this station are not official NWS values.
T = Trace of Precipitation, MM = Missing Value Source: NWS Daily Summary

Daily Weather History Graph

Daily Weather History Graph

Search for Another Location

Airport or City:

Trip Planner

Search our weather history database for the weather conditions in past years. The results will help you decide how hot, cold, wet, or windy it might be!

Date:

Astronomy

Oct. 04, 2011 Rise Set
Actual Time 7:06 AM PDT 6:46 PM PDT
Civil Twilight 6:39 AM PDT 7:12 PM PDT
Nautical Twilight 6:09 AM PDT 7:43 PM PDT
Astronomical Twilight 5:38 AM PDT 8:14 PM PDT
Moon 2:47 PM PDT (10/4) 12:00 AM PDT (10/4)
Length of Visible Light 12h 32m
Length of Day
11h 40m
First Quarter, 57% of the Moon is Illuminated
Oct 4
First Quarter
Oct 11
Full
Oct 19
Last Quarter
Oct 26
New
Nov 2
First Quarter

Hourly Weather History & Observations

Time (PDT) Temp. Dew Point Humidity Pressure Visibility Wind Dir Wind Speed Gust Speed Precip Events Conditions
12:53 AM 55.9 °F 55.0 °F 97% 29.90 in 4.0 mi Calm Calm - 0.01 in Rain Light Rain
1:53 AM 55.9 °F 55.0 °F 97% 29.91 in 5.0 mi NNW 3.5 mph - 0.01 in   Overcast
2:53 AM 57.0 °F 55.9 °F 96% 29.90 in 5.0 mi Calm Calm - N/A   Overcast
4:53 AM 55.9 °F 55.9 °F 100% 29.89 in 6.0 mi North 3.5 mph - 0.00 in   Overcast
5:53 AM 55.9 °F 55.0 °F 97% 29.90 in 6.0 mi Calm Calm - 0.01 in   Overcast
6:53 AM 55.9 °F 55.9 °F 100% 29.90 in 8.0 mi Calm Calm - N/A   Overcast
7:53 AM 55.9 °F 55.9 °F 100% 29.91 in 2.5 mi Calm Calm - 0.00 in   Overcast
8:53 AM 57.0 °F 55.9 °F 96% 29.91 in 5.0 mi Calm Calm - N/A   Overcast
9:53 AM 59.0 °F 57.9 °F 96% 29.91 in 3.0 mi SSE 5.8 mph - 0.01 in Rain Light Rain
10:53 AM 60.1 °F 57.9 °F 93% 29.91 in 10.0 mi South 8.1 mph - 0.00 in   Overcast
12:53 PM 64.0 °F 55.9 °F 75% 29.91 in 10.0 mi SSW 9.2 mph - N/A   Mostly Cloudy
1:53 PM 64.9 °F 52.0 °F 63% 29.89 in 10.0 mi SW 10.4 mph - N/A   Clear
3:53 PM 63.0 °F 52.0 °F 67% 29.88 in 10.0 mi SW 11.5 mph 18.4 mph N/A   Partly Cloudy
4:53 PM 62.1 °F 52.0 °F 70% 29.87 in 10.0 mi SW 12.7 mph 20.7 mph N/A   Mostly Cloudy
6:53 PM 59.0 °F 53.1 °F 81% 29.83 in 10.0 mi SSW 8.1 mph - 0.01 in Rain Light Rain
7:53 PM 57.0 °F 53.1 °F 87% 29.83 in 10.0 mi SW 10.4 mph - 0.02 in Rain Light Rain
8:53 PM 57.0 °F 53.1 °F 87% 29.81 in 10.0 mi South 5.8 mph - 0.01 in   Overcast
9:53 PM 57.9 °F 54.0 °F 87% 29.78 in 10.0 mi South 11.5 mph - 0.00 in Rain Light Rain
10:53 PM 57.0 °F 53.1 °F 87% 29.74 in 10.0 mi South 9.2 mph - 0.01 in Rain Light Rain